GW0010 Weather Reports


Display with metric or nautical units.
time (UTC)temp
F
wind
direction
speed
MPH
gust
MPH
rain 1hr
in
rain 24hr
in
rain mn
in
humidity
%
barometer
mb
20260509023521 71 267 10.0 14.0 0.00 0.00 0.00 32 1022.9
20260509022519 71 242 14.0 18.0 0.00 0.00 0.00 32 1022.7
20260509021514 71 204 8.0 14.0 0.00 0.00 0.00 31 1022.5
20260509020509 72 274 11.0 14.0 0.00 0.00 0.00 30 1022.4
20260509015505 72 266 9.0 15.0 0.00 0.00 0.00 29 1022.5
20260509014504 73 271 14.0 18.0 0.00 0.00 0.00 28 1022.2
20260509013503 73 271 15.0 18.0 0.00 0.00 0.00 27 1022.2
20260509012501 74 281 12.0 21.0 0.00 0.00 0.00 26 1022.2
20260509011456 74 252 11.0 17.0 0.00 0.00 0.00 25 1022.0
20260509010451 75 240 11.0 17.0 0.00 0.00 0.00 24 1022.0
20260509005446 76 269 11.0 16.0 0.00 0.00 0.00 24 1021.6
20260509004442 76 248 14.0 18.0 0.00 0.00 0.00 23 1021.5
20260509003438 76 265 9.0 16.0 0.00 0.00 0.00 21 1021.6
20260509002438 77 264 11.0 18.0 0.00 0.00 0.00 22 1021.6
20260509001438 77 209 10.0 22.0 0.00 0.00 0.00 21 1021.4
20260509000433 77 255 15.0 23.0 0.00 0.00 0.00 19 1021.4
20260508235432 78 229 10.0 17.0 0.00 0.00 0.00 19 1021.4
20260508234431 78 258 13.0 22.0 0.00 0.00 0.00 20 1021.3
20260508233428 78 276 18.0 21.0 0.00 0.00 0.00 20 1021.4
20260508232427 78 269 13.0 20.0 0.00 0.00 0.00 21 1021.4
20260508231427 78 257 11.0 18.0 0.00 0.00 0.00 18 1021.4
20260508230426 79 251 11.0 21.0 0.00 0.00 0.00 19 1021.3
20260508225426 79 277 9.0 18.0 0.00 0.00 0.00 20 1021.1
20260508224421 78 237 10.0 20.0 0.00 0.00 0.00 20 1021.4
20260508223416 79 231 8.0 14.0 0.00 0.00 0.00 19 1021.4
20260508222416 79 256 13.0 23.0 0.00 0.00 0.00 19 1021.1
20260508221414 79 230 16.0 18.0 0.00 0.00 0.00 20 1021.5
20260508220413 78 218 13.0 18.0 0.00 0.00 0.00 20 1021.9
20260508215413 79 245 11.0 20.0 0.00 0.00 0.00 21 1021.3
20260508214412 79 282 11.0 22.0 0.00 0.00 0.00 20 1021.6
20260508213412 79 217 7.0 21.0 0.00 0.00 0.00 21 1021.8
20260508212410 79 268 14.0 18.0 0.00 0.00 0.00 21 1021.9
20260508211407 79 250 15.0 25.0 0.00 0.00 0.00 23 1022.0
20260508210407 79 260 14.0 18.0 0.00 0.00 0.00 21 1022.2
20260508205407 78 259 15.0 20.0 0.00 0.00 0.00 22 1022.4
20260508204406 77 235 16.0 17.0 0.00 0.00 0.00 23 1022.5
20260508203404 78 268 9.0 20.0 0.00 0.00 0.00 23 1022.3
20260508202403 78 262 14.0 20.0 0.00 0.00 0.00 24 1023.2
20260508201402 76 232 8.0 17.0 0.00 0.00 0.00 24 1022.8
20260508200402 77 246 9.0 22.0 0.00 0.00 0.00 24 1023.1
20260508195400 77 249 13.0 18.0 0.00 0.00 0.00 24 1023.4
20260508194359 77 248 14.0 18.0 0.00 0.00 0.00 24 1023.2
20260508193359 77 246 5.0 14.0 0.00 0.00 0.00 25 1023.4
20260508192358 76 260 3.0 10.0 0.00 0.00 0.00 25 1023.7
20260508191353 77 302 5.0 9.0 0.00 0.00 0.00 24 1023.4
20260508190352 76 217 9.0 15.0 0.00 0.00 0.00 25 1023.8
20260508185352 76 226 15.0 24.0 0.00 0.00 0.00 25 1023.8
20260508184353 76 291 11.0 18.0 0.00 0.00 0.00 24 1024.3
20260508183351 75 249 7.0 17.0 0.00 0.00 0.00 25 1024.5
20260508182350 75 182 5.0 11.0 0.00 0.00 0.00 25 1024.6
20260508181349 75 250 17.0 21.0 0.00 0.00 0.00 25 1024.7
20260508180348 75 261 3.0 11.0 0.00 0.00 0.00 26 1024.6
20260508175347 74 290 10.0 16.0 0.00 0.00 0.00 26 1024.7
20260508174342 75 230 12.0 16.0 0.00 0.00 0.00 26 1025.0
20260508173342 75 248 8.0 11.0 0.00 0.00 0.00 26 1024.8
20260508172341 74 274 9.0 21.0 0.00 0.00 0.00 27 1025.2
20260508171339 73 250 7.0 10.0 0.00 0.00 0.00 27 1025.2
20260508170334 74 260 9.0 14.0 0.00 0.00 0.00 26 1025.2
20260508165333 73 247 4.0 8.0 0.00 0.00 0.00 26 1025.3
20260508164331 73 279 6.0 9.0 0.00 0.00 0.00 26 1025.3
20260508163327 72 256 3.0 10.0 0.00 0.00 0.00 27 1025.6
20260508162325 74 237 5.0 6.0 0.00 0.00 0.00 25 1025.9
20260508161326 72 209 0.0 1.0 0.00 0.00 0.00 28 1025.9
20260508160322 70 81 5.0 10.0 0.00 0.00 0.00 29 1025.9
20260508155321 71 104 5.0 6.0 0.00 0.00 0.00 29 1025.9
20260508154320 71 67 9.0 10.0 0.00 0.00 0.00 30 1026.0
20260508153320 71 135 2.0 2.0 0.00 0.00 0.00 28 1025.9
20260508152318 71 120 7.0 8.0 0.00 0.00 0.00 29 1026.0
20260508151317 72 209 0.0 0.0 0.00 0.00 0.00 29 1026.0
20260508150316 69 224 0.0 1.0 0.00 0.00 0.00 30 1026.1
20260508145314 69 199 0.0 2.0 0.00 0.00 0.00 30 1025.9
20260508144309 69 241 0.0 0.0 0.00 0.00 0.00 30 1025.9
20260508143309 71 202 0.0 1.0 0.00 0.00 0.00 30 1025.9
20260508142309 69 208 0.0 0.0 0.00 0.00 0.00 30 1026.1
20260508141308 67 187 0.0 0.0 0.00 0.00 0.00 33 1025.7
20260508140308 66 152 0.0 1.0 0.00 0.00 0.00 35 1026.0
20260508135306 66 155 0.0 1.0 0.00 0.00 0.00 35 1025.9
20260508134305 65 170 0.0 2.0 0.00 0.00 0.00 36 1026.1
20260508133305 64 110 0.0 2.0 0.00 0.00 0.00 37 1025.9
20260508132300 63 137 1.0 2.0 0.00 0.00 0.00 38 1025.7
20260508131257 63 106 0.0 3.0 0.00 0.00 0.00 38 1025.6
20260508130257 64 180 0.0 0.0 0.00 0.00 0.00 38 1025.9
20260508125255 63 270 0.0 0.0 0.00 0.00 0.00 38 1025.6
20260508124250 62 134 0.0 0.0 0.00 0.00 0.00 40 1025.5
20260508123246 62 169 0.0 0.0 0.00 0.00 0.00 40 1025.5
20260508122245 61 205 0.0 0.0 0.00 0.00 0.00 40 1025.3
20260508121241 62 197 0.0 0.0 0.00 0.00 0.00 40 1025.3
20260508120236 62 177 0.0 0.0 0.00 0.00 0.00 40 1025.0
20260508115231 62 202 0.0 0.0 0.00 0.00 0.00 39 1025.2
20260508114230 62 178 0.0 2.0 0.00 0.00 0.00 39 1025.0
20260508113225 62 163 0.0 0.0 0.00 0.00 0.00 39 1025.2
20260508112223 62 205 0.0 0.0 0.00 0.00 0.00 40 1025.1
20260508111218 61 183 0.0 0.0 0.00 0.00 0.00 40 1024.7
20260508110218 61 203 0.0 0.0 0.00 0.00 0.00 40 1025.0
20260508105214 61 192 0.0 1.0 0.00 0.00 0.00 40 1024.8
20260508104214 61 140 3.0 5.0 0.00 0.00 0.00 40 1024.6
20260508103209 62 111 2.0 3.0 0.00 0.00 0.00 39 1024.6
20260508102204 62 123 3.0 6.0 0.00 0.00 0.00 39 1024.7
20260508101204 62 161 1.0 5.0 0.00 0.00 0.00 39 1024.7
20260508100200 63 107 2.0 5.0 0.00 0.00 0.00 37 1024.3
20260508095159 62 204 0.0 0.0 0.00 0.00 0.00 38 1024.5
20260508094158 63 221 0.0 0.0 0.00 0.00 0.00 37 1024.3
20260508093153 63 205 0.0 0.0 0.00 0.00 0.00 37 1024.5
20260508092149 62 193 0.0 0.0 0.00 0.00 0.00 38 1024.6
20260508091149 63 179 0.0 0.0 0.00 0.00 0.00 38 1024.6
20260508090143 63 219 0.0 0.0 0.00 0.00 0.00 39 1024.7
20260508085143 64 245 3.0 3.0 0.00 0.00 0.00 38 1024.7
20260508084142 64 277 3.0 5.0 0.00 0.00 0.00 38 1024.7
20260508083137 64 235 3.0 7.0 0.00 0.00 0.00 38 1024.7
20260508082135 64 276 6.0 7.0 0.00 0.00 0.00 37 1024.6
20260508081135 65 250 2.0 5.0 0.00 0.00 0.00 37 1024.5
20260508080131 65 257 5.0 7.0 0.00 0.00 0.00 36 1025.0
20260508075130 65 258 6.0 8.0 0.00 0.00 0.00 36 1024.8
20260508074124 65 267 4.0 7.0 0.00 0.00 0.00 36 1025.0
20260508073119 65 261 6.0 8.0 0.00 0.00 0.00 36 1025.2
20260508072118 65 256 7.0 9.0 0.00 0.00 0.00 36 1025.1
20260508071114 66 259 6.0 8.0 0.00 0.00 0.00 36 1025.2
20260508070109 66 247 7.0 10.0 0.00 0.00 0.00 36 1025.3
20260508065109 66 263 8.0 11.0 0.00 0.00 0.00 36 1025.3
20260508064105 66 270 5.0 9.0 0.00 0.00 0.00 36 1025.3
20260508063100 66 265 8.0 11.0 0.00 0.00 0.00 36 1025.5
20260508062100 66 268 9.0 13.0 0.00 0.00 0.00 35 1025.5
20260508061054 66 235 9.0 11.0 0.00 0.00 0.00 36 1025.6
20260508060054 66 261 9.0 11.0 0.00 0.00 0.00 35 1025.6
20260508055053 67 247 7.0 10.0 0.00 0.00 0.00 35 1026.0
20260508054053 67 257 8.0 10.0 0.00 0.00 0.00 34 1025.6
20260508053047 67 254 6.0 13.0 0.00 0.00 0.00 33 1025.9
20260508052047 68 270 7.0 13.0 0.00 0.00 0.00 33 1025.7
20260508051044 68 252 9.0 14.0 0.00 0.00 0.00 32 1026.0
20260508050044 68 271 8.0 13.0 0.00 0.00 0.00 32 1025.7
20260508045044 68 248 9.0 11.0 0.00 0.00 0.00 32 1025.9
20260508044042 68 293 10.0 14.0 0.00 0.00 0.00 31 1025.6
20260508043037 68 270 6.0 13.0 0.00 0.00 0.00 30 1025.2
20260508042036 69 247 8.0 15.0 0.00 0.00 0.00 30 1025.6
20260508041035 69 241 6.0 14.0 0.00 0.00 0.00 29 1025.3
20260508040035 69 241 7.0 11.0 0.00 0.00 0.00 28 1025.1
20260508035035 70 257 7.0 11.0 0.00 0.00 0.00 27 1025.1
20260508034035 70 258 9.0 14.0 0.00 0.00 0.00 27 1024.8
20260508033030 70 272 5.0 10.0 0.00 0.00 0.00 27 1025.2
20260508032030 71 256 8.0 10.0 0.00 0.00 0.00 26 1024.8
20260508031028 71 257 6.0 10.0 0.00 0.00 0.00 26 1024.8
20260508030023 72 241 4.0 9.0 0.00 0.00 0.00 26 1024.7
20260508025022 72 283 8.0 11.0 0.00 0.00 0.00 25 1024.3